Year,Month,Day,Hour,Minute,Value (Times are PST for insolation in W/m^2)
2016,06,12,00,00,0.00
2016,06,12,00,01,0.00
2016,06,12,00,02,0.00
2016,06,12,00,03,0.00
2016,06,12,00,04,0.00
2016,06,12,00,05,0.00
2016,06,12,00,06,0.00
2016,06,12,00,07,0.00
2016,06,12,00,08,0.00
2016,06,12,00,09,0.00
2016,06,12,00,10,0.00
2016,06,12,00,11,0.00
2016,06,12,00,12,0.00
2016,06,12,00,13,0.00
2016,06,12,00,14,0.00
2016,06,12,00,15,0.00
2016,06,12,00,16,0.00
2016,06,12,00,17,0.00
2016,06,12,00,18,0.00
2016,06,12,00,19,0.00
2016,06,12,00,20,0.00
2016,06,12,00,21,0.00
2016,06,12,00,22,0.00
2016,06,12,00,23,0.00
2016,06,12,00,24,0.00
2016,06,12,00,25,0.00
2016,06,12,00,26,0.00
2016,06,12,00,27,0.00
2016,06,12,00,28,0.00
2016,06,12,00,29,0.00
2016,06,12,00,30,0.00
2016,06,12,00,31,0.00
2016,06,12,00,32,0.00
2016,06,12,00,33,0.00
2016,06,12,00,34,0.00
2016,06,12,00,35,0.00
2016,06,12,00,36,0.00
2016,06,12,00,37,0.00
2016,06,12,00,38,0.00
2016,06,12,00,39,0.00
2016,06,12,00,40,0.00
2016,06,12,00,41,0.00
2016,06,12,00,42,0.00
2016,06,12,00,43,0.00
2016,06,12,00,44,0.00
2016,06,12,00,45,0.00
2016,06,12,00,46,0.00
2016,06,12,00,47,0.00
2016,06,12,00,48,0.00
2016,06,12,00,49,0.00
2016,06,12,00,50,0.00
2016,06,12,00,51,0.00
2016,06,12,00,52,0.00
2016,06,12,00,53,0.00
2016,06,12,00,54,0.00
2016,06,12,00,55,0.00
2016,06,12,00,56,0.00
2016,06,12,00,57,0.00
2016,06,12,00,58,0.00
2016,06,12,00,59,0.00
2016,06,12,01,00,0.00
2016,06,12,01,01,0.00
2016,06,12,01,02,0.00
2016,06,12,01,03,0.00
2016,06,12,01,04,0.00
2016,06,12,01,05,0.00
2016,06,12,01,06,0.00
2016,06,12,01,07,0.00
2016,06,12,01,08,0.00
2016,06,12,01,09,0.00
2016,06,12,01,10,0.00
2016,06,12,01,11,0.00
2016,06,12,01,12,0.00
2016,06,12,01,13,0.00
2016,06,12,01,14,0.00
2016,06,12,01,15,0.00
2016,06,12,01,16,0.00
2016,06,12,01,17,0.00
2016,06,12,01,18,0.00
2016,06,12,01,19,0.00
2016,06,12,01,20,0.00
2016,06,12,01,21,0.00
2016,06,12,01,22,0.00
2016,06,12,01,23,0.00
2016,06,12,01,24,0.00
2016,06,12,01,25,0.00
2016,06,12,01,26,0.00
2016,06,12,01,27,0.00
2016,06,12,01,28,0.00
2016,06,12,01,29,0.00
2016,06,12,01,30,0.00
2016,06,12,01,31,0.00
2016,06,12,01,32,0.00
2016,06,12,01,33,0.00
2016,06,12,01,34,0.00
2016,06,12,01,35,0.00
2016,06,12,01,36,0.00
2016,06,12,01,37,0.00
2016,06,12,01,38,0.00
2016,06,12,01,39,0.00
2016,06,12,01,40,0.00
2016,06,12,01,41,0.00
2016,06,12,01,42,0.00
2016,06,12,01,43,0.00
2016,06,12,01,44,0.00
2016,06,12,01,45,0.00
2016,06,12,01,46,0.00
2016,06,12,01,47,0.00
2016,06,12,01,48,0.00
2016,06,12,01,49,0.00
2016,06,12,01,50,0.00
2016,06,12,01,51,0.00
2016,06,12,01,52,0.00
2016,06,12,01,53,0.00
2016,06,12,01,54,0.00
2016,06,12,01,55,0.00
2016,06,12,01,56,0.00
2016,06,12,01,57,0.00
2016,06,12,01,58,0.00
2016,06,12,01,59,0.00
2016,06,12,02,00,0.00
2016,06,12,02,01,0.00
2016,06,12,02,02,0.00
2016,06,12,02,03,0.00
2016,06,12,02,04,0.00
2016,06,12,02,05,0.00
2016,06,12,02,06,0.00
2016,06,12,02,07,0.00
2016,06,12,02,08,0.00
2016,06,12,02,09,0.00
2016,06,12,02,10,0.00
2016,06,12,02,11,0.00
2016,06,12,02,12,0.00
2016,06,12,02,13,0.00
2016,06,12,02,14,0.00
2016,06,12,02,15,0.00
2016,06,12,02,16,0.00
2016,06,12,02,17,0.00
2016,06,12,02,18,0.00
2016,06,12,02,19,0.00
2016,06,12,02,20,0.00
2016,06,12,02,21,0.00
2016,06,12,02,22,0.00
2016,06,12,02,23,0.00
2016,06,12,02,24,0.00
2016,06,12,02,25,0.00
2016,06,12,02,26,0.00
2016,06,12,02,27,0.00
2016,06,12,02,28,0.00
2016,06,12,02,29,0.00
2016,06,12,02,30,0.00
2016,06,12,02,31,0.00
2016,06,12,02,32,0.00
2016,06,12,02,33,0.00
2016,06,12,02,34,0.00
2016,06,12,02,35,0.00
2016,06,12,02,36,0.00
2016,06,12,02,37,0.00
2016,06,12,02,38,0.00
2016,06,12,02,39,0.00
2016,06,12,02,40,0.00
2016,06,12,02,41,0.00
2016,06,12,02,42,0.00
2016,06,12,02,43,0.00
2016,06,12,02,44,0.00
2016,06,12,02,45,0.00
2016,06,12,02,46,0.00
2016,06,12,02,47,0.00
2016,06,12,02,48,0.00
2016,06,12,02,49,0.00
2016,06,12,02,50,0.00
2016,06,12,02,51,0.00
2016,06,12,02,52,0.00
2016,06,12,02,53,0.00
2016,06,12,02,54,0.00
2016,06,12,02,55,0.00
2016,06,12,02,56,0.00
2016,06,12,02,57,0.00
2016,06,12,02,58,0.00
2016,06,12,02,59,0.00
2016,06,12,03,00,0.00
2016,06,12,03,01,0.00
2016,06,12,03,02,0.00
2016,06,12,03,03,0.00
2016,06,12,03,04,0.00
2016,06,12,03,05,0.00
2016,06,12,03,06,0.00
2016,06,12,03,07,0.00
2016,06,12,03,08,0.00
2016,06,12,03,09,0.00
2016,06,12,03,10,0.00
2016,06,12,03,11,0.00
2016,06,12,03,12,0.00
2016,06,12,03,13,0.00
2016,06,12,03,14,0.00
2016,06,12,03,15,0.00
2016,06,12,03,16,0.00
2016,06,12,03,17,0.00
2016,06,12,03,18,0.00
2016,06,12,03,19,0.00
2016,06,12,03,20,0.00
2016,06,12,03,21,0.00
2016,06,12,03,22,0.00
2016,06,12,03,23,0.00
2016,06,12,03,24,0.00
2016,06,12,03,25,0.00
2016,06,12,03,26,0.00
2016,06,12,03,27,0.00
2016,06,12,03,28,0.00
2016,06,12,03,29,0.00
2016,06,12,03,30,0.00
2016,06,12,03,31,0.00
2016,06,12,03,32,0.00
2016,06,12,03,33,0.00
2016,06,12,03,34,0.00
2016,06,12,03,35,0.00
2016,06,12,03,36,0.00
2016,06,12,03,37,0.00
2016,06,12,03,38,0.00
2016,06,12,03,39,0.00
2016,06,12,03,40,0.00
2016,06,12,03,41,0.00
2016,06,12,03,42,0.00
2016,06,12,03,43,0.00
2016,06,12,03,44,0.00
2016,06,12,03,45,0.00
2016,06,12,03,46,0.00
2016,06,12,03,47,0.00
2016,06,12,03,48,0.00
2016,06,12,03,49,0.00
2016,06,12,03,50,0.00
2016,06,12,03,51,0.00
2016,06,12,03,52,0.00
2016,06,12,03,53,0.00
2016,06,12,03,54,0.00
2016,06,12,03,55,0.00
2016,06,12,03,56,0.00
2016,06,12,03,57,0.00
2016,06,12,03,58,0.00
2016,06,12,03,59,0.00
2016,06,12,04,00,0.00
2016,06,12,04,01,0.00
2016,06,12,04,02,0.00
2016,06,12,04,03,0.00
2016,06,12,04,04,0.00
2016,06,12,04,05,0.00
2016,06,12,04,06,0.00
2016,06,12,04,07,0.00
2016,06,12,04,08,0.00
2016,06,12,04,09,0.00
2016,06,12,04,10,0.00
2016,06,12,04,11,0.00
2016,06,12,04,12,0.00
2016,06,12,04,13,0.00
2016,06,12,04,14,0.00
2016,06,12,04,15,0.00
2016,06,12,04,16,0.00
2016,06,12,04,17,0.00
2016,06,12,04,18,0.00
2016,06,12,04,19,0.00
2016,06,12,04,20,0.00
2016,06,12,04,21,0.00
2016,06,12,04,22,0.00
2016,06,12,04,23,0.00
2016,06,12,04,24,0.00
2016,06,12,04,25,0.00
2016,06,12,04,26,0.00
2016,06,12,04,27,0.00
2016,06,12,04,28,0.00
2016,06,12,04,29,0.00
2016,06,12,04,30,0.00
2016,06,12,04,31,0.00
2016,06,12,04,32,0.00
2016,06,12,04,33,0.00
2016,06,12,04,34,0.00
2016,06,12,04,35,0.00
2016,06,12,04,36,0.00
2016,06,12,04,37,0.00
2016,06,12,04,38,0.00
2016,06,12,04,39,0.00
2016,06,12,04,40,0.00
2016,06,12,04,41,0.00
2016,06,12,04,42,0.00
2016,06,12,04,43,0.00
2016,06,12,04,44,0.00
2016,06,12,04,45,0.00
2016,06,12,04,46,0.00
2016,06,12,04,47,0.00
2016,06,12,04,48,0.00
2016,06,12,04,49,0.00
2016,06,12,04,50,0.00
2016,06,12,04,51,0.00
2016,06,12,04,52,0.00
2016,06,12,04,53,0.00
2016,06,12,04,54,0.00
2016,06,12,04,55,0.00
2016,06,12,04,56,0.00
2016,06,12,04,57,0.00
2016,06,12,04,58,0.00
2016,06,12,04,59,0.00
2016,06,12,05,00,0.00
2016,06,12,05,01,0.00
2016,06,12,05,02,0.00
2016,06,12,05,03,0.00
2016,06,12,05,04,0.00
2016,06,12,05,05,0.00
2016,06,12,05,06,0.00
2016,06,12,05,07,0.00
2016,06,12,05,08,2.00
2016,06,12,05,09,5.00
2016,06,12,05,10,5.00
2016,06,12,05,11,5.00
2016,06,12,05,12,5.00
2016,06,12,05,13,5.00
2016,06,12,05,14,5.00
2016,06,12,05,15,5.00
2016,06,12,05,16,5.00
2016,06,12,05,17,5.00
2016,06,12,05,18,5.00
2016,06,12,05,19,5.30
2016,06,12,05,20,7.00
2016,06,12,05,21,7.00
2016,06,12,05,22,7.00
2016,06,12,05,23,7.80
2016,06,12,05,24,9.00
2016,06,12,05,25,9.00
2016,06,12,05,26,10.20
2016,06,12,05,27,11.00
2016,06,12,05,28,11.70
2016,06,12,05,29,12.00
2016,06,12,05,30,12.00
2016,06,12,05,31,13.80
2016,06,12,05,32,14.10
2016,06,12,05,33,16.00
2016,06,12,05,34,16.00
2016,06,12,05,35,16.00
2016,06,12,05,36,16.00
2016,06,12,05,37,16.00
2016,06,12,05,38,16.00
2016,06,12,05,39,16.00
2016,06,12,05,40,16.00
2016,06,12,05,41,16.00
2016,06,12,05,42,16.00
2016,06,12,05,43,16.00
2016,06,12,05,44,16.00
2016,06,12,05,45,17.70
2016,06,12,05,46,18.00
2016,06,12,05,47,19.00
2016,06,12,05,48,21.20
2016,06,12,05,49,23.60
2016,06,12,05,50,26.40
2016,06,12,05,51,28.60
2016,06,12,05,52,30.70
2016,06,12,05,53,32.40
2016,06,12,05,54,33.00
2016,06,12,05,55,34.10
2016,06,12,05,56,35.00
2016,06,12,05,57,35.00
2016,06,12,05,58,33.50
2016,06,12,05,59,32.20
2016,06,12,06,00,30.30
2016,06,12,06,01,28.20
2016,06,12,06,02,26.00
2016,06,12,06,03,25.00
2016,06,12,06,04,24.70
2016,06,12,06,05,23.00
2016,06,12,06,06,23.00
2016,06,12,06,07,23.00
2016,06,12,06,08,23.00
2016,06,12,06,09,24.00
2016,06,12,06,10,25.00
2016,06,12,06,11,25.60
2016,06,12,06,12,27.30
2016,06,12,06,13,29.40
2016,06,12,06,14,32.40
2016,06,12,06,15,38.10
2016,06,12,06,16,41.70
2016,06,12,06,17,46.00
2016,06,12,06,18,49.40
2016,06,12,06,19,53.80
2016,06,12,06,20,59.20
2016,06,12,06,21,64.20
2016,06,12,06,22,68.10
2016,06,12,06,23,71.60
2016,06,12,06,24,74.90
2016,06,12,06,25,76.60
2016,06,12,06,26,78.20
2016,06,12,06,27,80.30
2016,06,12,06,28,79.60
2016,06,12,06,29,76.60
2016,06,12,06,30,74.30
2016,06,12,06,31,75.90
2016,06,12,06,32,77.00
2016,06,12,06,33,77.20
2016,06,12,06,34,79.30
2016,06,12,06,35,81.00
2016,06,12,06,36,81.00
2016,06,12,06,37,81.00
2016,06,12,06,38,80.20
2016,06,12,06,39,78.10
2016,06,12,06,40,76.40
2016,06,12,06,41,73.70
2016,06,12,06,42,70.10
2016,06,12,06,43,67.60
2016,06,12,06,44,63.80
2016,06,12,06,45,63.00
2016,06,12,06,46,62.10
2016,06,12,06,47,62.00
2016,06,12,06,48,61.80
2016,06,12,06,49,60.30
2016,06,12,06,50,62.00
2016,06,12,06,51,62.30
2016,06,12,06,52,64.40
2016,06,12,06,53,68.20
2016,06,12,06,54,73.00
2016,06,12,06,55,77.70
2016,06,12,06,56,82.00
2016,06,12,06,57,88.10
2016,06,12,06,58,92.10
2016,06,12,06,59,97.00
2016,06,12,07,00,101.40
2016,06,12,07,01,103.80
2016,06,12,07,02,106.80
2016,06,12,07,03,106.80
2016,06,12,07,04,104.40
2016,06,12,07,05,101.60
2016,06,12,07,06,99.20
2016,06,12,07,07,97.00
2016,06,12,07,08,97.00
2016,06,12,07,09,97.50
2016,06,12,07,10,98.00
2016,06,12,07,11,98.00
2016,06,12,07,12,98.00
2016,06,12,07,13,100.90
2016,06,12,07,14,107.60
2016,06,12,07,15,114.90
2016,06,12,07,16,120.80
2016,06,12,07,17,128.00
2016,06,12,07,18,135.90
2016,06,12,07,19,144.80
2016,06,12,07,20,150.00
2016,06,12,07,21,153.90
2016,06,12,07,22,157.30
2016,06,12,07,23,159.20
2016,06,12,07,24,158.00
2016,06,12,07,25,156.90
2016,06,12,07,26,155.40
2016,06,12,07,27,155.00
2016,06,12,07,28,152.00
2016,06,12,07,29,147.00
2016,06,12,07,30,144.30
2016,06,12,07,31,135.90
2016,06,12,07,32,123.60
2016,06,12,07,33,121.40
2016,06,12,07,34,106.40
2016,06,12,07,35,103.60
2016,06,12,07,36,102.00
2016,06,12,07,37,102.00
2016,06,12,07,38,102.00
2016,06,12,07,39,98.50
2016,06,12,07,40,89.20
2016,06,12,07,41,79.80
2016,06,12,07,42,72.40
2016,06,12,07,43,67.80
2016,06,12,07,44,67.00
2016,06,12,07,45,68.70
2016,06,12,07,46,67.20
2016,06,12,07,47,69.20
2016,06,12,07,48,76.80
2016,06,12,07,49,86.10
2016,06,12,07,50,102.00
2016,06,12,07,51,118.20
2016,06,12,07,52,131.10
2016,06,12,07,53,137.80
2016,06,12,07,54,139.00
2016,06,12,07,55,140.10
2016,06,12,07,56,141.60
2016,06,12,07,57,141.40
2016,06,12,07,58,141.00
2016,06,12,07,59,137.80
2016,06,12,08,00,131.10
2016,06,12,08,01,127.30
2016,06,12,08,02,125.10
2016,06,12,08,03,127.10
2016,06,12,08,04,128.90
2016,06,12,08,05,135.20
2016,06,12,08,06,140.80
2016,06,12,08,07,147.80
2016,06,12,08,08,152.60
2016,06,12,08,09,155.50
2016,06,12,08,10,155.40
2016,06,12,08,11,152.50
2016,06,12,08,12,146.40
2016,06,12,08,13,140.50
2016,06,12,08,14,135.00
2016,06,12,08,15,132.30
2016,06,12,08,16,132.00
2016,06,12,08,17,132.00
2016,06,12,08,18,132.20
2016,06,12,08,19,134.00
2016,06,12,08,20,134.00
2016,06,12,08,21,135.50
2016,06,12,08,22,140.10
2016,06,12,08,23,142.90
2016,06,12,08,24,144.90
2016,06,12,08,25,144.90
2016,06,12,08,26,141.00
2016,06,12,08,27,135.80
2016,06,12,08,28,129.50
2016,06,12,08,29,125.60
2016,06,12,08,30,125.00
2016,06,12,08,31,121.40
2016,06,12,08,32,123.10
2016,06,12,08,33,125.70
2016,06,12,08,34,133.40
2016,06,12,08,35,143.50
2016,06,12,08,36,153.10
2016,06,12,08,37,161.10
2016,06,12,08,38,170.60
2016,06,12,08,39,178.50
2016,06,12,08,40,183.20
2016,06,12,08,41,185.00
2016,06,12,08,42,182.40
2016,06,12,08,43,177.20
2016,06,12,08,44,172.80
2016,06,12,08,45,167.50
2016,06,12,08,46,165.20
2016,06,12,08,47,167.40
2016,06,12,08,48,178.30
2016,06,12,08,49,204.20
2016,06,12,08,50,230.50
2016,06,12,08,51,250.20
2016,06,12,08,52,263.10
2016,06,12,08,53,267.40
2016,06,12,08,54,271.50
2016,06,12,08,55,294.50
2016,06,12,08,56,324.80
2016,06,12,08,57,345.80
2016,06,12,08,58,343.20
2016,06,12,08,59,342.70
2016,06,12,09,00,343.00
2016,06,12,09,01,309.80
2016,06,12,09,02,292.50
2016,06,12,09,03,298.90
2016,06,12,09,04,276.40
2016,06,12,09,05,255.00
2016,06,12,09,06,243.30
2016,06,12,09,07,232.10
2016,06,12,09,08,223.00
2016,06,12,09,09,206.40
2016,06,12,09,10,188.00
2016,06,12,09,11,192.40
2016,06,12,09,12,199.60
2016,06,12,09,13,208.60
2016,06,12,09,14,229.40
2016,06,12,09,15,250.10
2016,06,12,09,16,259.60
2016,06,12,09,17,264.20
2016,06,12,09,18,267.50
2016,06,12,09,19,272.00
2016,06,12,09,20,270.00
2016,06,12,09,21,259.30
2016,06,12,09,22,236.90
2016,06,12,09,23,211.00
2016,06,12,09,24,198.60
2016,06,12,09,25,202.50
2016,06,12,09,26,226.20
2016,06,12,09,27,277.30
2016,06,12,09,28,343.00
2016,06,12,09,29,355.80
2016,06,12,09,30,364.40
2016,06,12,09,31,402.00
2016,06,12,09,32,430.50
2016,06,12,09,33,457.00
2016,06,12,09,34,456.40
2016,06,12,09,35,461.80
2016,06,12,09,36,485.00
2016,06,12,09,37,499.40
2016,06,12,09,38,486.80
2016,06,12,09,39,406.00
2016,06,12,09,40,365.60
2016,06,12,09,41,341.00
2016,06,12,09,42,324.90
2016,06,12,09,43,313.20
2016,06,12,09,44,305.40
2016,06,12,09,45,301.50
2016,06,12,09,46,303.70
2016,06,12,09,47,308.40
2016,06,12,09,48,319.90
2016,06,12,09,49,370.10
2016,06,12,09,50,393.30
2016,06,12,09,51,389.00
2016,06,12,09,52,404.80
2016,06,12,09,53,408.90
2016,06,12,09,54,413.70
2016,06,12,09,55,394.50
2016,06,12,09,56,367.60
2016,06,12,09,57,356.10
2016,06,12,09,58,344.60
2016,06,12,09,59,332.20
2016,06,12,10,00,330.00
2016,06,12,10,01,353.70
2016,06,12,10,02,378.60
2016,06,12,10,03,361.90
2016,06,12,10,04,396.80
2016,06,12,10,05,442.20
2016,06,12,10,06,497.30
2016,06,12,10,07,586.50
2016,06,12,10,08,654.70
2016,06,12,10,09,644.00
2016,06,12,10,10,618.80
2016,06,12,10,11,601.60
2016,06,12,10,12,647.20
2016,06,12,10,13,670.00
2016,06,12,10,14,423.60
2016,06,12,10,15,351.80
2016,06,12,10,16,377.90
2016,06,12,10,17,326.20
2016,06,12,10,18,335.30
2016,06,12,10,19,382.60
2016,06,12,10,20,388.80
2016,06,12,10,21,441.70
2016,06,12,10,22,497.00
2016,06,12,10,23,440.20
2016,06,12,10,24,347.00
2016,06,12,10,25,323.20
2016,06,12,10,26,311.80
2016,06,12,10,27,346.00
2016,06,12,10,28,366.00
2016,06,12,10,29,366.00
2016,06,12,10,30,366.00
2016,06,12,10,31,322.80
2016,06,12,10,32,330.50
2016,06,12,10,33,348.30
2016,06,12,10,34,414.80
2016,06,12,10,35,426.50
2016,06,12,10,36,388.40
2016,06,12,10,37,352.00
2016,06,12,10,38,456.00
2016,06,12,10,39,648.50
2016,06,12,10,40,729.30
2016,06,12,10,41,747.60
2016,06,12,10,42,763.10
2016,06,12,10,43,773.00
2016,06,12,10,44,581.00
2016,06,12,10,45,545.80
2016,06,12,10,46,545.20
2016,06,12,10,47,501.40
2016,06,12,10,48,443.90
2016,06,12,10,49,373.00
2016,06,12,10,50,393.00
2016,06,12,10,51,443.80
2016,06,12,10,52,472.50
2016,06,12,10,53,466.00
2016,06,12,10,54,420.00
2016,06,12,10,55,374.00
2016,06,12,10,56,374.00
2016,06,12,10,57,701.60
2016,06,12,10,58,842.00
2016,06,12,10,59,804.40
2016,06,12,11,00,801.00
2016,06,12,11,01,763.30
2016,06,12,11,02,849.00
2016,06,12,11,03,782.10
2016,06,12,11,04,394.40
2016,06,12,11,05,360.00
2016,06,12,11,06,360.00
2016,06,12,11,07,483.90
2016,06,12,11,08,756.80
2016,06,12,11,09,809.00
2016,06,12,11,10,901.40
2016,06,12,11,11,983.60
2016,06,12,11,12,963.30
2016,06,12,11,13,921.00
2016,06,12,11,14,911.00
2016,06,12,11,15,775.80
2016,06,12,11,16,776.30
2016,06,12,11,17,733.00
2016,06,12,11,18,719.50
2016,06,12,11,19,640.00
2016,06,12,11,20,630.50
2016,06,12,11,21,662.90
2016,06,12,11,22,718.10
2016,06,12,11,23,761.00
2016,06,12,11,24,761.00
2016,06,12,11,25,761.00
2016,06,12,11,26,761.00
2016,06,12,11,27,761.00
2016,06,12,11,28,761.00
2016,06,12,11,29,783.70
2016,06,12,11,30,788.00
2016,06,12,11,31,788.00
2016,06,12,11,32,791.80
2016,06,12,11,33,866.80
2016,06,12,11,34,883.80
2016,06,12,11,35,867.80
2016,06,12,11,36,855.30
2016,06,12,11,37,821.00
2016,06,12,11,38,871.60
2016,06,12,11,39,960.00
2016,06,12,11,40,981.00
2016,06,12,11,41,981.00
2016,06,12,11,42,932.90
2016,06,12,11,43,913.80
2016,06,12,11,44,875.20
2016,06,12,11,45,865.00
2016,06,12,11,46,865.00
2016,06,12,11,47,816.50
2016,06,12,11,48,380.00
2016,06,12,11,49,392.90
2016,06,12,11,50,486.20
2016,06,12,11,51,547.00
2016,06,12,11,52,644.70
2016,06,12,11,53,866.50
2016,06,12,11,54,910.20
2016,06,12,11,55,902.20
2016,06,12,11,56,883.80
2016,06,12,11,57,875.00
2016,06,12,11,58,875.00
2016,06,12,11,59,902.20
2016,06,12,12,00,884.80
2016,06,12,12,01,861.10
2016,06,12,12,02,868.60
2016,06,12,12,03,858.90
2016,06,12,12,04,879.40
2016,06,12,12,05,845.20
2016,06,12,12,06,797.40
2016,06,12,12,07,806.80
2016,06,12,12,08,788.80
2016,06,12,12,09,737.60
2016,06,12,12,10,729.00
2016,06,12,12,11,628.20
2016,06,12,12,12,535.10
2016,06,12,12,13,492.50
2016,06,12,12,14,482.00
2016,06,12,12,15,674.10
2016,06,12,12,16,708.00
2016,06,12,12,17,708.00
2016,06,12,12,18,723.70
2016,06,12,12,19,854.40
2016,06,12,12,20,805.50
2016,06,12,12,21,801.60
2016,06,12,12,22,851.00
2016,06,12,12,23,879.40
2016,06,12,12,24,858.50
2016,06,12,12,25,856.30
2016,06,12,12,26,897.40
2016,06,12,12,27,901.90
2016,06,12,12,28,904.80
2016,06,12,12,29,938.20
2016,06,12,12,30,946.00
2016,06,12,12,31,921.70
2016,06,12,12,32,915.80
2016,06,12,12,33,911.80
2016,06,12,12,34,911.20
2016,06,12,12,35,911.80
2016,06,12,12,36,911.30
2016,06,12,12,37,912.70
2016,06,12,12,38,914.90
2016,06,12,12,39,909.00
2016,06,12,12,40,921.10
2016,06,12,12,41,965.60
2016,06,12,12,42,993.70
2016,06,12,12,43,988.90
2016,06,12,12,44,1006.00
2016,06,12,12,45,1030.60
2016,06,12,12,46,1034.00
2016,06,12,12,47,1022.50
2016,06,12,12,48,811.70
2016,06,12,12,49,861.00
2016,06,12,12,50,861.00
2016,06,12,12,51,913.80
2016,06,12,12,52,1059.80
2016,06,12,12,53,1099.00
2016,06,12,12,54,1070.50
2016,06,12,12,55,1042.00
2016,06,12,12,56,933.50
2016,06,12,12,57,875.00
2016,06,12,12,58,875.00
2016,06,12,12,59,782.20
2016,06,12,13,00,685.90
2016,06,12,13,01,643.50
2016,06,12,13,02,620.50
2016,06,12,13,03,591.50
2016,06,12,13,04,591.20
2016,06,12,13,05,614.20
2016,06,12,13,06,626.70
2016,06,12,13,07,603.20
2016,06,12,13,08,575.90
2016,06,12,13,09,559.00
2016,06,12,13,10,560.30
2016,06,12,13,11,582.80
2016,06,12,13,12,612.20
2016,06,12,13,13,632.20
2016,06,12,13,14,646.40
2016,06,12,13,15,617.30
2016,06,12,13,16,581.70
2016,06,12,13,17,531.00
2016,06,12,13,18,529.70
2016,06,12,13,19,526.20
2016,06,12,13,20,549.20
2016,06,12,13,21,574.90
2016,06,12,13,22,595.20
2016,06,12,13,23,617.80
2016,06,12,13,24,639.30
2016,06,12,13,25,667.20
2016,06,12,13,26,679.60
2016,06,12,13,27,681.30
2016,06,12,13,28,684.00
2016,06,12,13,29,684.00
2016,06,12,13,30,690.00
2016,06,12,13,31,667.20
2016,06,12,13,32,687.10
2016,06,12,13,33,694.20
2016,06,12,13,34,717.70
2016,06,12,13,35,677.50
2016,06,12,13,36,663.00
2016,06,12,13,37,667.00
2016,06,12,13,38,678.80
2016,06,12,13,39,682.50
2016,06,12,13,40,734.60
2016,06,12,13,41,818.20
2016,06,12,13,42,847.00
2016,06,12,13,43,847.00
2016,06,12,13,44,824.60
2016,06,12,13,45,802.80
2016,06,12,13,46,846.40
2016,06,12,13,47,803.90
2016,06,12,13,48,835.20
2016,06,12,13,49,916.00
2016,06,12,13,50,916.00
2016,06,12,13,51,958.60
2016,06,12,13,52,1058.00
2016,06,12,13,53,1058.00
2016,06,12,13,54,870.00
2016,06,12,13,55,704.00
2016,06,12,13,56,725.60
2016,06,12,13,57,759.30
2016,06,12,13,58,721.00
2016,06,12,13,59,681.10
2016,06,12,14,00,671.90
2016,06,12,14,01,646.30
2016,06,12,14,02,643.90
2016,06,12,14,03,622.70
2016,06,12,14,04,613.00
2016,06,12,14,05,609.20
2016,06,12,14,06,618.40
2016,06,12,14,07,624.80
2016,06,12,14,08,617.80
2016,06,12,14,09,579.50
2016,06,12,14,10,582.80
2016,06,12,14,11,585.10
2016,06,12,14,12,599.40
2016,06,12,14,13,624.80
2016,06,12,14,14,615.80
2016,06,12,14,15,583.20
2016,06,12,14,16,581.90
2016,06,12,14,17,629.00
2016,06,12,14,18,629.00
2016,06,12,14,19,629.00
2016,06,12,14,20,602.80
2016,06,12,14,21,511.70
2016,06,12,14,22,475.40
2016,06,12,14,23,483.80
2016,06,12,14,24,492.20
2016,06,12,14,25,457.60
2016,06,12,14,26,431.90
2016,06,12,14,27,407.80
2016,06,12,14,28,377.00
2016,06,12,14,29,346.60
2016,06,12,14,30,314.20
2016,06,12,14,31,284.40
2016,06,12,14,32,255.90
2016,06,12,14,33,233.90
2016,06,12,14,34,212.80
2016,06,12,14,35,197.50
2016,06,12,14,36,187.90
2016,06,12,14,37,182.20
2016,06,12,14,38,181.90
2016,06,12,14,39,184.50
2016,06,12,14,40,188.40
2016,06,12,14,41,191.90
2016,06,12,14,42,195.80
2016,06,12,14,43,199.20
2016,06,12,14,44,203.40
2016,06,12,14,45,205.70
2016,06,12,14,46,206.90
2016,06,12,14,47,208.80
2016,06,12,14,48,207.00
2016,06,12,14,49,207.00
2016,06,12,14,50,210.50
2016,06,12,14,51,225.50
2016,06,12,14,52,241.60
2016,06,12,14,53,255.90
2016,06,12,14,54,271.00
2016,06,12,14,55,287.80
2016,06,12,14,56,309.20
2016,06,12,14,57,337.30
2016,06,12,14,58,360.80
2016,06,12,14,59,379.60
2016,06,12,15,00,396.60
2016,06,12,15,01,409.50
2016,06,12,15,02,420.50
2016,06,12,15,03,434.90
2016,06,12,15,04,454.60
2016,06,12,15,05,443.20
2016,06,12,15,06,435.90
2016,06,12,15,07,426.50
2016,06,12,15,08,413.50
2016,06,12,15,09,402.00
2016,06,12,15,10,391.00
2016,06,12,15,11,382.50
2016,06,12,15,12,375.20
2016,06,12,15,13,366.20
2016,06,12,15,14,358.40
2016,06,12,15,15,348.90
2016,06,12,15,16,345.00
2016,06,12,15,17,343.10
2016,06,12,15,18,345.00
2016,06,12,15,19,344.60
2016,06,12,15,20,341.70
2016,06,12,15,21,335.30
2016,06,12,15,22,326.20
2016,06,12,15,23,319.30
2016,06,12,15,24,315.50
2016,06,12,15,25,313.80
2016,06,12,15,26,313.00
2016,06,12,15,27,314.40
2016,06,12,15,28,313.50
2016,06,12,15,29,309.80
2016,06,12,15,30,304.50
2016,06,12,15,31,299.20
2016,06,12,15,32,293.70
2016,06,12,15,33,287.00
2016,06,12,15,34,279.20
2016,06,12,15,35,269.50
2016,06,12,15,36,258.10
2016,06,12,15,37,247.80
2016,06,12,15,38,238.90
2016,06,12,15,39,230.30
2016,06,12,15,40,224.70
2016,06,12,15,41,221.70
2016,06,12,15,42,220.30
2016,06,12,15,43,220.00
2016,06,12,15,44,220.00
2016,06,12,15,45,220.90
2016,06,12,15,46,220.10
2016,06,12,15,47,219.80
2016,06,12,15,48,215.60
2016,06,12,15,49,212.20
2016,06,12,15,50,208.20
2016,06,12,15,51,205.40
2016,06,12,15,52,203.20
2016,06,12,15,53,201.10
2016,06,12,15,54,198.50
2016,06,12,15,55,195.80
2016,06,12,15,56,195.00
2016,06,12,15,57,193.60
2016,06,12,15,58,193.00
2016,06,12,15,59,193.00
2016,06,12,16,00,192.10
2016,06,12,16,01,190.10
2016,06,12,16,02,189.80
2016,06,12,16,03,188.00
2016,06,12,16,04,187.60
2016,06,12,16,05,185.80
2016,06,12,16,06,182.90
2016,06,12,16,07,177.90
2016,06,12,16,08,175.10
2016,06,12,16,09,174.00
2016,06,12,16,10,174.00
2016,06,12,16,11,174.00
2016,06,12,16,12,175.40
2016,06,12,16,13,177.50
2016,06,12,16,14,178.80
2016,06,12,16,15,178.10
2016,06,12,16,16,178.00
2016,06,12,16,17,176.10
2016,06,12,16,18,178.10
2016,06,12,16,19,180.20
2016,06,12,16,20,187.10
2016,06,12,16,21,194.50
2016,06,12,16,22,202.80
2016,06,12,16,23,211.10
2016,06,12,16,24,220.90
2016,06,12,16,25,229.10
2016,06,12,16,26,237.90
2016,06,12,16,27,244.70
2016,06,12,16,28,251.20
2016,06,12,16,29,258.60
2016,06,12,16,30,264.50
2016,06,12,16,31,266.90
2016,06,12,16,32,266.90
2016,06,12,16,33,264.00
2016,06,12,16,34,256.60
2016,06,12,16,35,249.00
2016,06,12,16,36,240.80
2016,06,12,16,37,231.60
2016,06,12,16,38,220.10
2016,06,12,16,39,209.00
2016,06,12,16,40,201.20
2016,06,12,16,41,195.10
2016,06,12,16,42,190.90
2016,06,12,16,43,187.00
2016,06,12,16,44,185.10
2016,06,12,16,45,183.20
2016,06,12,16,46,181.00
2016,06,12,16,47,178.70
2016,06,12,16,48,175.20
2016,06,12,16,49,169.80
2016,06,12,16,50,162.90
2016,06,12,16,51,156.20
2016,06,12,16,52,150.60
2016,06,12,16,53,142.90
2016,06,12,16,54,136.50
2016,06,12,16,55,129.90
2016,06,12,16,56,124.40
2016,06,12,16,57,121.60
2016,06,12,16,58,121.00
2016,06,12,16,59,122.60
2016,06,12,17,00,121.20
2016,06,12,17,01,120.10
2016,06,12,17,02,118.00
2016,06,12,17,03,116.90
2016,06,12,17,04,110.00
2016,06,12,17,05,105.50
2016,06,12,17,06,100.50
2016,06,12,17,07,96.80